timestamp,wind_dir_avg,wind_spd_avg,wind_spd_max_dir,wind_spd_gust,battery_voltage,lat,long
2021-11-13 00:04:00+00:00,350.0,4.84,343.0,5.83,12.57,47.59359,-54.27349
2021-11-13 00:14:00+00:00,347.0,4.74,338.0,5.3,12.57,47.59359,-54.27349
2021-11-13 00:24:00+00:00,335.0,4.45,349.0,5.28,12.57,47.59359,-54.27349
2021-11-13 00:34:00+00:00,338.0,4.17,338.0,5.78,12.57,47.59359,-54.27349
2021-11-13 00:44:00+00:00,350.0,3.75,326.0,4.95,12.57,47.59359,-54.27349
2021-11-13 00:54:00+00:00,337.0,3.73,338.0,4.87,12.57,47.59359,-54.27349
2021-11-13 01:04:00+00:00,353.0,3.96,350.0,5.19,12.57,47.59359,-54.27349
2021-11-13 01:14:01+00:00,355.0,3.29,344.0,3.92,12.57,47.59359,-54.27349
2021-11-13 01:24:01+00:00,356.0,1.96,310.0,3.77,12.57,47.59359,-54.27349
2021-11-13 01:34:01+00:00,304.0,3.12,307.0,4.0,12.57,47.59359,-54.27349
2021-11-13 01:44:01+00:00,306.0,4.24,306.0,4.9,12.57,47.59359,-54.27349
2021-11-13 01:54:01+00:00,309.0,3.35,308.0,4.15,12.57,47.59359,-54.27349
2021-11-13 02:04:01+00:00,309.0,4.32,319.0,5.08,12.57,47.59359,-54.27349
2021-11-13 02:14:00+00:00,338.0,3.36,309.0,4.75,12.49,47.59359,-54.27349
2021-11-13 02:24:00+00:00,320.0,5.34,322.0,6.53,12.49,47.59359,-54.27349
2021-11-13 02:34:00+00:00,310.0,6.84,298.0,9.83,12.49,47.59359,-54.27349
2021-11-13 02:44:00+00:00,338.0,5.63,327.0,6.94,12.49,47.59359,-54.27349
2021-11-13 02:54:00+00:00,332.0,5.27,324.0,6.4,12.49,47.59359,-54.27349
2021-11-13 03:04:00+00:00,324.0,5.11,321.0,6.42,12.49,47.59359,-54.27349
2021-11-13 03:14:00+00:00,334.0,4.0,318.0,6.0,12.49,47.59359,-54.27349
2021-11-13 03:24:00+00:00,27.0,3.97,18.0,4.78,12.49,47.59359,-54.27349
2021-11-13 03:34:00+00:00,5.0,3.21,312.0,4.37,12.49,47.59359,-54.27349
2021-11-13 03:44:00+00:00,14.0,3.63,20.0,4.61,12.49,47.59359,-54.27349
2021-11-13 03:54:00+00:00,332.0,3.8,322.0,5.61,12.49,47.59359,-54.27349
2021-11-13 04:04:00+00:00,333.0,3.49,314.0,4.72,12.49,47.59359,-54.27349
2021-11-13 04:14:01+00:00,12.0,3.05,321.0,4.71,12.49,47.59359,-54.27349
2021-11-13 04:24:01+00:00,17.0,3.88,20.0,4.87,12.49,47.59359,-54.27349
2021-11-13 04:34:01+00:00,19.0,3.73,25.0,4.75,12.49,47.59359,-54.27349
2021-11-13 04:44:01+00:00,27.0,3.47,25.0,4.13,12.49,47.59359,-54.27349
2021-11-13 04:54:01+00:00,345.0,2.92,321.0,4.08,12.49,47.59359,-54.27349
2021-11-13 05:04:01+00:00,1.0,2.83,339.0,3.64,12.49,47.59359,-54.27349
2021-11-13 05:14:00+00:00,2.0,2.47,39.0,3.51,12.41,47.59359,-54.27349
2021-11-13 05:24:00+00:00,5.0,3.11,328.0,4.21,12.41,47.59359,-54.27349
2021-11-13 05:34:00+00:00,29.0,3.36,27.0,3.81,12.41,47.59359,-54.27349
2021-11-13 05:44:00+00:00,31.0,3.51,29.0,4.35,12.41,47.59359,-54.27349
2021-11-13 05:54:00+00:00,3.0,3.17,338.0,3.83,12.41,47.59359,-54.27349
2021-11-13 06:04:00+00:00,356.0,2.85,347.0,3.5,12.41,47.59359,-54.27349
2021-11-13 06:14:00+00:00,354.0,2.99,4.0,3.45,12.41,47.59359,-54.27349
2021-11-13 06:24:00+00:00,20.0,2.98,36.0,3.82,12.41,47.59359,-54.27349
2021-11-13 06:34:00+00:00,34.0,3.02,43.0,3.59,12.41,47.59359,-54.27349
2021-11-13 06:44:00+00:00,350.0,1.55,52.0,2.69,12.41,47.59359,-54.27349
2021-11-13 06:54:00+00:00,344.0,1.68,53.0,2.73,12.41,47.59359,-54.27349
2021-11-13 07:04:00+00:00,347.0,2.18,341.0,2.76,12.41,47.59359,-54.27349
2021-11-13 07:14:00+00:00,4.0,1.79,38.0,3.21,12.41,47.59359,-54.27349
2021-11-13 07:24:00+00:00,316.0,0.71,326.0,1.35,12.41,47.59359,-54.27349
2021-11-13 07:34:00+00:00,71.0,0.98,52.0,1.51,12.41,47.59359,-54.27349
2021-11-13 07:44:00+00:00,1.0,1.89,350.0,2.72,12.41,47.59359,-54.27349
2021-11-13 07:54:00+00:00,336.0,0.88,318.0,1.6,12.41,47.59359,-54.27349
2021-11-13 08:04:00+00:00,22.0,0.71,333.0,1.83,12.41,47.59359,-54.27349
2021-11-13 08:14:00+00:00,63.0,1.04,78.0,1.45,12.41,47.59359,-54.27349
2021-11-13 08:24:00+00:00,45.0,1.74,60.0,2.24,12.41,47.59359,-54.27349
2021-11-13 08:34:00+00:00,50.0,1.29,50.0,1.71,12.41,47.59359,-54.27349
2021-11-13 08:44:00+00:00,66.0,1.47,60.0,2.08,12.41,47.59359,-54.27349
2021-11-13 08:54:00+00:00,85.0,1.65,72.0,2.32,12.41,47.59359,-54.27349
2021-11-13 09:04:00+00:00,98.0,0.88,97.0,1.63,12.41,47.59359,-54.27349
2021-11-13 09:14:00+00:00,149.0,1.74,142.0,2.23,12.41,47.59359,-54.27349
2021-11-13 09:24:00+00:00,134.0,2.42,134.0,2.93,12.41,47.59359,-54.27349
2021-11-13 09:34:00+00:00,154.0,2.58,141.0,3.08,12.41,47.59359,-54.27349
2021-11-13 09:44:00+00:00,146.0,2.81,141.0,3.31,12.41,47.59359,-54.27349
2021-11-13 09:54:00+00:00,154.0,2.28,168.0,3.4,12.41,47.59359,-54.27349
2021-11-13 10:04:00+00:00,162.0,2.17,162.0,2.75,12.41,47.59359,-54.27349
2021-11-13 10:14:00+00:00,154.0,3.21,156.0,3.95,12.33,47.59359,-54.27349
2021-11-13 10:24:00+00:00,169.0,2.79,179.0,3.72,12.33,47.59359,-54.27349
2021-11-13 10:34:00+00:00,176.0,6.86,179.0,8.03,12.33,47.59359,-54.27349
2021-11-13 10:44:00+00:00,176.0,7.29,173.0,8.63,12.33,47.59359,-54.27349
2021-11-13 10:54:00+00:00,177.0,6.0,175.0,7.35,12.33,47.59359,-54.27349
2021-11-13 11:04:00+00:00,176.0,6.16,173.0,7.12,12.33,47.59359,-54.27349
2021-11-13 11:14:00+00:00,161.0,6.74,161.0,7.89,12.33,47.59359,-54.27349
2021-11-13 11:24:00+00:00,172.0,7.85,172.0,8.56,12.33,47.59359,-54.27349
2021-11-13 11:34:00+00:00,180.0,8.15,180.0,9.6,12.33,47.59359,-54.27349
2021-11-13 11:44:00+00:00,180.0,8.94,178.0,9.98,12.33,47.59359,-54.27349
2021-11-13 11:54:00+00:00,177.0,9.53,176.0,10.69,12.33,47.59359,-54.27349
2021-11-13 12:04:00+00:00,180.0,9.8,182.0,11.1,12.33,47.59359,-54.27349
2021-11-13 12:14:01+00:00,172.0,10.62,176.0,12.3,12.41,47.59359,-54.27349
2021-11-13 12:24:01+00:00,172.0,9.5,173.0,10.62,12.41,47.59359,-54.27349
2021-11-13 12:34:01+00:00,179.0,10.09,180.0,12.04,12.41,47.59359,-54.27349
2021-11-13 12:44:01+00:00,172.0,10.42,179.0,12.11,12.41,47.59359,-54.27349
2021-11-13 12:54:01+00:00,167.0,10.15,172.0,11.22,12.41,47.59359,-54.27349
2021-11-13 13:04:01+00:00,181.0,10.8,180.0,12.31,12.41,47.59359,-54.27349
2021-11-13 13:14:01+00:00,187.0,10.75,192.0,12.05,12.57,47.59359,-54.27349
2021-11-13 13:24:01+00:00,186.0,11.87,186.0,14.54,12.57,47.59359,-54.27349
2021-11-13 13:34:01+00:00,179.0,10.64,182.0,12.06,12.57,47.59359,-54.27349
2021-11-13 13:44:01+00:00,185.0,10.9,181.0,12.58,12.57,47.59359,-54.27349
2021-11-13 13:54:01+00:00,184.0,9.7,184.0,12.09,12.57,47.59359,-54.27349
2021-11-13 14:04:01+00:00,193.0,12.47,189.0,14.13,12.57,47.59359,-54.27349
2021-11-13 14:14:01+00:00,195.0,12.29,195.0,14.04,13.13,47.59359,-54.27349
2021-11-13 14:24:01+00:00,194.0,12.08,196.0,13.98,13.13,47.59359,-54.27349
2021-11-13 14:34:01+00:00,193.0,13.33,193.0,15.43,13.13,47.59359,-54.27349
2021-11-13 14:44:01+00:00,194.0,12.8,195.0,14.26,13.13,47.59359,-54.27349
2021-11-13 14:54:01+00:00,195.0,12.94,192.0,15.49,13.13,47.59359,-54.27349
2021-11-13 15:04:01+00:00,194.0,14.74,195.0,16.77,13.13,47.59359,-54.27349
2021-11-13 15:14:00+00:00,193.0,12.8,191.0,15.35,13.29,47.59359,-54.27349
2021-11-13 15:24:00+00:00,197.0,13.59,212.0,17.02,13.29,47.59359,-54.27349
2021-11-13 15:34:00+00:00,193.0,12.85,190.0,14.53,13.29,47.59359,-54.27349
2021-11-13 15:44:00+00:00,193.0,12.92,193.0,14.66,13.29,47.59359,-54.27349
2021-11-13 15:54:00+00:00,200.0,13.24,206.0,16.73,13.29,47.59359,-54.27349
2021-11-13 16:04:00+00:00,192.0,13.03,194.0,14.43,13.29,47.59359,-54.27349
2021-11-13 16:14:00+00:00,192.0,13.84,197.0,15.52,13.13,47.59359,-54.27349
2021-11-13 16:24:00+00:00,201.0,14.2,225.0,17.56,13.13,47.59359,-54.27349
2021-11-13 16:34:00+00:00,192.0,12.94,194.0,15.55,13.13,47.59359,-54.27349
2021-11-13 16:44:00+00:00,192.0,13.58,196.0,16.38,13.13,47.59359,-54.27349
2021-11-13 16:54:00+00:00,197.0,13.54,210.0,15.05,13.13,47.59359,-54.27349
2021-11-13 17:04:00+00:00,194.0,12.69,187.0,14.97,13.13,47.59359,-54.27349
2021-11-13 17:14:00+00:00,192.0,13.32,188.0,14.89,13.05,47.59359,-54.27349
2021-11-13 17:24:00+00:00,190.0,13.22,188.0,14.75,13.05,47.59359,-54.27349
2021-11-13 17:34:00+00:00,189.0,13.79,191.0,15.46,13.05,47.59359,-54.27349
2021-11-13 17:44:00+00:00,191.0,13.77,191.0,15.06,13.05,47.59359,-54.27349
2021-11-13 17:54:00+00:00,193.0,13.13,194.0,15.38,13.05,47.59359,-54.27349
2021-11-13 18:04:00+00:00,191.0,12.17,186.0,13.88,13.05,47.59359,-54.27349
2021-11-13 18:14:00+00:00,195.0,12.87,195.0,14.32,12.97,47.59359,-54.27349
2021-11-13 18:24:00+00:00,195.0,13.19,190.0,14.36,12.97,47.59359,-54.27349
2021-11-13 18:34:00+00:00,188.0,11.58,191.0,14.11,12.97,47.59359,-54.27349
2021-11-13 18:44:00+00:00,189.0,13.45,193.0,15.47,12.97,47.59359,-54.27349
2021-11-13 18:54:00+00:00,184.0,12.95,186.0,15.07,12.97,47.59359,-54.27349
2021-11-13 19:04:00+00:00,182.0,11.69,183.0,13.2,12.97,47.59359,-54.27349
2021-11-13 19:14:01+00:00,187.0,12.43,187.0,15.85,12.73,47.59359,-54.27349
2021-11-13 19:24:01+00:00,190.0,14.29,188.0,16.85,12.73,47.59359,-54.27349
2021-11-13 19:34:01+00:00,193.0,15.12,189.0,17.43,12.73,47.59359,-54.27349
2021-11-13 19:44:01+00:00,191.0,16.54,191.0,19.19,12.73,47.59359,-54.27349
2021-11-13 19:54:01+00:00,192.0,16.39,192.0,18.62,12.73,47.59359,-54.27349
2021-11-13 20:04:01+00:00,197.0,15.69,199.0,18.43,12.73,47.59359,-54.27349
2021-11-13 20:14:00+00:00,197.0,15.98,195.0,20.04,12.65,47.59359,-54.27349
2021-11-13 20:24:00+00:00,198.0,15.12,200.0,17.92,12.65,47.59359,-54.27349
2021-11-13 20:34:00+00:00,195.0,15.61,193.0,18.11,12.65,47.59359,-54.27349
2021-11-13 20:44:00+00:00,196.0,17.68,198.0,19.63,12.65,47.59359,-54.27349
2021-11-13 20:54:00+00:00,197.0,17.25,197.0,19.56,12.65,47.59359,-54.27349
2021-11-13 21:04:00+00:00,200.0,15.46,200.0,19.54,12.65,47.59359,-54.27349
2021-11-13 21:14:00+00:00,207.0,15.94,210.0,19.41,12.57,47.59359,-54.27349
2021-11-13 21:24:00+00:00,211.0,17.82,214.0,20.55,12.57,47.59359,-54.27349
2021-11-13 21:34:00+00:00,206.0,16.99,202.0,20.07,12.57,47.59359,-54.27349
2021-11-13 21:44:00+00:00,214.0,17.86,215.0,20.24,12.57,47.59359,-54.27349
2021-11-13 21:54:00+00:00,221.0,14.55,222.0,17.47,12.57,47.59359,-54.27349
2021-11-13 22:04:00+00:00,213.0,17.51,206.0,21.36,12.57,47.59359,-54.27349
2021-11-13 22:14:01+00:00,211.0,16.51,211.0,18.65,12.57,47.59359,-54.27349
2021-11-13 22:24:01+00:00,213.0,16.36,215.0,18.61,12.57,47.59359,-54.27349
2021-11-13 22:34:01+00:00,213.0,16.21,208.0,18.41,12.57,47.59359,-54.27349
2021-11-13 22:44:01+00:00,210.0,16.71,203.0,18.92,12.57,47.59359,-54.27349
2021-11-13 22:54:01+00:00,202.0,19.59,198.0,24.8,12.57,47.59359,-54.27349
2021-11-13 23:04:01+00:00,211.0,17.28,216.0,20.67,12.57,47.59359,-54.27349
2021-11-13 23:14:00+00:00,208.0,15.76,218.0,18.56,12.49,47.59359,-54.27349
2021-11-13 23:24:00+00:00,209.0,16.99,215.0,20.22,12.49,47.59359,-54.27349
2021-11-13 23:34:00+00:00,206.0,17.35,201.0,20.17,12.49,47.59359,-54.27349
2021-11-13 23:44:00+00:00,209.0,18.06,210.0,21.9,12.49,47.59359,-54.27349
2021-11-13 23:54:00+00:00,208.0,16.99,216.0,19.88,12.49,47.59359,-54.27349
